Probability
23 42 55 74 77 81 81 81 81 84 81 84 84 84 81 81 87 84 87 87 84 87 90 90 94 90 87 87 84 77 77 71 71 61 68 68 71 68 58 42 52 52 71
29 45 61 71 77 81 77 81 84 87 87 81 81 84 81 77 77 84 90 84 84 87 87 81 87 84 87 90 87 77 74 68 71 58 61 58 55 58 52 39 52 58 68
29 42 48 71 77 74 74 87 87 84 84 81 81 84 81 81 84 84 81 84 84 87 77 81 81 81 90 84 81 77 87 77 71 61 61 48 52 65 61 48 52 58 71
32 39 48 74 81 81 81 87 94 81 84 84 81 84 81 77 81 71 74 84 84 84 74 81 74 74 77 74 74 74 77 74 61 65 23 26 35 71 61 55 55 55 61
39 45 65 74 77 77 74 90 94 87 84 84 77 81 81 81 74 77 71 77 77 81 81 77 74 74 68 68 68 65 71 55 39 32 19 23 52 68 65 65 65 61 65
45 45 58 71 71 77 77 94 94 87 77 81 81 77 84 71 71 74 71 77 81 81 77 65 68 65 61 61 61 61 52 32 29 10 26 26 35 71 68 65 55 48 55
39 45 52 71 74 74 74 84 81 77 87 77 77 81 74 74 71 71 77 71 71 68 61 58 55 58 48 39 48 48 42 39 16 16 19 26 48 68 65 65 61 58 58
32 42 58 74 74 77 71 68 74 77 77 77 77 74 71 68 68 68 65 65 65 58 52 61 35 48 45 45 48 42 42 35 13 6 10 32 55 74 65 68 68 58 58
26 35 39 39 58 61 68 71 65 77 74 77 81 71 71 71 68 71 71 65 55 55 45 42 35 39 52 39 39 45 45 32 23 23 3 39 61 74 55 61 68 71 61
26 35 39 35 39 42 48 61 74 77 77 77 74 74 74 68 61 68 65 68 48 45 42 39 35 35 48 45 45 48 42 42 16 19 23 42 71 68 68 65 68 58 58
26 23 26 32 42 42 39 45 74 77 71 71 71 71 74 52 42 48 48 68 48 42 45 42 42 45 45 48 45 45 42 26 16 23 26 48 74 71 58 65 71 61 52
23 26 32 26 32 35 13 48 58 48 68 55 48 61 48 58 65 39 65 65 52 52 45 42 42 42 42 29 26 35 39 26 26 16 26 61 55 58 61 61 71 71 55
23 23 26 32 29 35 26 32 39 52 61 55 55 58 71 65 48 45 58 58 58 48 45 45 29 29 35 42 42 35 35 29 32 23 32 61 55 65 71 71 71 68 65
23 26 29 39 35 39 35 32 29 32 48 45 61 58 58 65 48 58 65 45 39 61 61 42 55 48 48 45 39 45 42 32 32 29 55 58 68 71 61 68 74 74 65
23 29 29 32 58 68 71 45 26 32 23 35 68 48 48 45 39 35 68 61 45 42 48 58 55 58 52 48 48 48 48 39 35 35 48 65 74 81 71 61 71 68 65
26 29 35 39 48 68 65 52 39 32 42 29 39 45 48 45 48 48 61 65 55 48 48 55 48 58 52 42 42 42 48 48 42 52 42 52 77 74 71 71 74 74 68
39 39 45 42 48 52 55 48 32 35 39 35 42 55 58 48 61 65 58 55 45 42 52 52 42 39 52 45 42 45 48 45 42 52 52 45 61 71 74 71 81 81 81
48 55 48 19 35 48 55 52 32 39 39 39 42 48 58 58 52 71 58 58 61 52 45 52 42 39 42 52 45 42 48 61 48 55 52 58 61 55 68 68 68 74 74
61 65 65 55 48 55 48 58 45 45 48 45 39 48 55 55 52 58 68 61 65 61 48 35 48 42 42 55 42 55 48 45 48 42 48 48 55 61 52 71 65 71 68
58 58 61 68 71 61 58 61 48 45 45 48 48 55 58 58 55 65 65 74 65 58 61 55 52 52 58 58 42 39 52 32 45 45 55 48 45 39 42 45 55 58 65
65 68 71 71 84 77 68 58 55 48 52 52 52 45 52 65 58 74 61 68 65 61 61 48 52 61 55 61 52 39 42 35 29 48 45 42 32 42 48 52 58 61 61
61 68 84 84 77 81 74 74 68 61 55 55 52 55 61 58 61 52 74 68 65 77 71 65 68 65 55 48 39 39 35 39 48 23 45 45 42 42 55 42 55 61 55
61 74 61 77 81 81 81 65 65 71 58 48 61 61 68 71 68 65 71 68 65 52 65 71 71 71 52 45 45 45 42 26 32 26 42 39 52 55 45 45 52 55 52
58 61 74 77 77 77 77 74 71 74 58 61 71 61 61 65 65 61 68 68 68 61 74 68 58 61 68 52 58 58 45 52 52 39 35 32 45 52 39 32 42 48 52
52 55 74 77 74 74 74 77 81 68 68 58 55 61 71 55 58 58 68 68 77 74 68 68 71 74 65 61 52 48 42 65 48 45 35 32 29 39 39 48 42 39 45
52 58 55 74 74 74 71 71 74 74 77 68 74 58 58 55 58 55 61 65 71 68 71 71 71 74 65 65 65 55 58 48 52 42 35 48 45 26 35 35 42 35 39
Height
5894 5893 5894 5895 5896 5896 5897 5898 5898 5899 5900 5900 5900 5901 5902 5902 5903 5903 5904 5904 5904 5905 5905 5905 5906 5906 5906 5907 5907 5907 5907 5908 5908 5908 5908 5908 5908 5908 5908 5908 5908 5908 5908
5896 5895 5896 5896 5897 5898 5898 5899 5899 5900 5901 5901 5902 5902 5903 5904 5904 5905 5905 5905 5906 5906 5906 5907 5907 5907 5907 5908 5908 5908 5908 5909 5909 5909 5909 5909 5909 5909 5909 5909 5909 5909 5909
5897 5896 5897 5898 5898 5899 5899 5900 5901 5901 5902 5902 5903 5904 5904 5905 5905 5906 5906 5907 5907 5907 5908 5908 5908 5908 5909 5909 5909 5909 5910 5910 5910 5910 5910 5910 5910 5910 5910 5910 5910 5910 5910
5897 5897 5898 5898 5899 5899 5900 5901 5902 5902 5903 5904 5904 5905 5905 5906 5906 5907 5907 5908 5908 5908 5909 5909 5909 5910 5910 5910 5910 5910 5911 5911 5911 5911 5911 5911 5911 5911 5911 5911 5911 5911 5911
5898 5897 5898 5899 5900 5900 5901 5902 5903 5903 5904 5905 5906 5906 5906 5907 5907 5908 5908 5909 5909 5909 5910 5910 5910 5911 5911 5911 5911 5911 5912 5912 5912 5912 5912 5912 5912 5912 5912 5912 5912 5912 5912
5898 5898 5899 5900 5901 5901 5902 5902 5903 5904 5905 5906 5907 5907 5907 5908 5908 5909 5909 5910 5910 5910 5911 5911 5911 5911 5911 5912 5912 5912 5913 5913 5913 5913 5913 5913 5913 5913 5913 5913 5913 5913 5913
5900 5899 5900 5901 5902 5902 5902 5903 5904 5905 5906 5907 5907 5908 5908 5909 5909 5910 5910 5911 5911 5911 5911 5912 5912 5912 5912 5912 5913 5913 5913 5913 5913 5913 5913 5913 5913 5914 5914 5914 5913 5913 5913
5901 5901 5901 5901 5902 5903 5903 5904 5905 5906 5907 5907 5908 5909 5909 5910 5910 5910 5911 5911 5912 5912 5912 5912 5912 5913 5913 5913 5913 5913 5914 5914 5914 5914 5914 5914 5914 5914 5914 5914 5914 5914 5913
5902 5902 5902 5902 5903 5903 5904 5905 5906 5907 5907 5908 5909 5910 5910 5911 5911 5911 5912 5912 5912 5912 5913 5913 5913 5913 5913 5913 5914 5914 5914 5914 5914 5914 5914 5914 5914 5914 5914 5914 5914 5914 5914
5903 5903 5903 5903 5904 5904 5905 5905 5906 5907 5908 5909 5909 5910 5911 5911 5911 5912 5912 5913 5913 5913 5913 5913 5913 5913 5914 5914 5914 5914 5914 5914 5914 5914 5914 5914 5914 5914 5914 5914 5914 5914 5913
5904 5904 5904 5904 5905 5905 5905 5906 5907 5908 5909 5909 5910 5910 5911 5912 5912 5912 5912 5913 5913 5913 5913 5913 5913 5913 5914 5914 5914 5914 5914 5914 5914 5914 5914 5914 5914 5914 5914 5914 5914 5913 5913
5905 5906 5906 5906 5906 5906 5906 5906 5908 5908 5909 5910 5911 5911 5912 5912 5912 5913 5913 5913 5913 5913 5913 5913 5913 5913 5914 5914 5914 5914 5914 5914 5914 5914 5914 5914 5914 5914 5914 5914 5914 5913 5913
5906 5907 5907 5907 5907 5907 5907 5907 5908 5909 5910 5911 5911 5912 5913 5913 5913 5913 5914 5914 5914 5914 5914 5914 5914 5914 5914 5914 5915 5915 5914 5914 5914 5914 5914 5914 5914 5914 5913 5913 5913 5913 5912
5908 5908 5908 5908 5908 5908 5908 5908 5909 5910 5910 5911 5912 5913 5914 5914 5914 5914 5914 5914 5914 5914 5914 5914 5914 5914 5914 5914 5915 5915 5914 5914 5914 5914 5913 5913 5913 5913 5913 5913 5912 5912 5912
5909 5909 5909 5909 5909 5909 5909 5910 5910 5910 5911 5912 5913 5913 5914 5914 5914 5914 5915 5915 5915 5914 5914 5914 5914 5914 5914 5914 5914 5914 5914 5914 5913 5913 5913 5913 5913 5912 5912 5912 5911 5911 5911
5910 5910 5910 5910 5910 5910 5910 5910 5910 5911 5911 5912 5913 5914 5914 5915 5915 5915 5915 5915 5915 5915 5914 5914 5914 5914 5914 5914 5914 5914 5914 5913 5913 5912 5912 5912 5911 5911 5911 5911 5910 5910 5909
5911 5911 5911 5910 5910 5910 5911 5911 5911 5911 5912 5913 5913 5914 5915 5915 5915 5915 5915 5915 5915 5915 5915 5914 5914 5914 5914 5914 5914 5913 5913 5912 5912 5911 5911 5910 5910 5910 5910 5909 5909 5909 5908
5912 5912 5911 5911 5911 5911 5911 5911 5912 5912 5912 5913 5914 5914 5915 5915 5915 5915 5915 5915 5915 5915 5915 5914 5914 5914 5913 5913 5913 5912 5912 5911 5911 5910 5910 5909 5909 5909 5908 5908 5908 5907 5907
5913 5912 5912 5912 5912 5912 5912 5912 5912 5912 5913 5913 5914 5914 5915 5915 5916 5916 5916 5916 5915 5915 5915 5914 5914 5913 5913 5912 5912 5911 5911 5910 5910 5909 5909 5908 5908 5908 5907 5907 5906 5906 5905
5913 5913 5912 5912 5912 5912 5912 5912 5912 5913 5913 5913 5914 5914 5915 5915 5915 5915 5916 5916 5915 5915 5914 5913 5913 5912 5912 5911 5911 5910 5910 5909 5909 5908 5908 5907 5907 5907 5906 5906 5905 5905 5904
5914 5913 5913 5912 5912 5912 5912 5912 5912 5913 5913 5914 5914 5914 5915 5915 5915 5915 5915 5915 5915 5914 5913 5912 5912 5912 5911 5910 5910 5909 5909 5908 5908 5907 5906 5906 5905 5905 5905 5904 5903 5903 5902
5914 5914 5913 5912 5912 5912 5912 5912 5912 5912 5912 5913 5913 5914 5914 5914 5914 5914 5914 5914 5914 5913 5912 5911 5911 5910 5910 5909 5909 5908 5908 5908 5907 5906 5905 5904 5904 5903 5903 5902 5902 5901 5900
5914 5913 5913 5912 5912 5912 5911 5911 5911 5911 5912 5912 5913 5913 5913 5913 5913 5913 5913 5913 5912 5912 5911 5910 5910 5909 5908 5908 5907 5907 5906 5906 5905 5905 5903 5903 5902 5902 5901 5900 5900 5899 5898
5913 5913 5913 5912 5912 5911 5911 5911 5911 5911 5911 5911 5912 5912 5912 5912 5912 5912 5912 5912 5911 5910 5910 5909 5908 5907 5907 5906 5905 5905 5904 5904 5903 5902 5902 5901 5900 5899 5899 5898 5897 5897 5896
5912 5912 5911 5911 5911 5910 5910 5910 5910 5910 5910 5910 5910 5911 5911 5911 5911 5911 5911 5910 5910 5909 5908 5907 5906 5905 5905 5904 5903 5902 5902 5901 5900 5900 5899 5898 5898 5897 5896 5895 5894 5894 5893
5911 5910 5910 5910 5909 5909 5908 5908 5908 5908 5908 5909 5909 5909 5909 5909 5909 5909 5908 5908 5908 5907 5906 5905 5904 5904 5903 5902 5900 5900 5899 5898 5898 5897 5896 5895 5895 5894 5893 5892 5891 5891 5890
Wind_Speed
11 11 11 11 10 10 10 11 11 12 12 12 12 12 12 12 12 11 11 11 10 10 10 10 9 8 7 7 8 8 8 7 7 7 7 7 6 6 6 5 5 5 5
10 10 10 10 10 10 11 11 11 12 12 12 12 12 11 11 11 11 11 11 10 10 9 10 9 9 8 8 8 7 8 7 7 6 6 6 5 5 5 6 6 6 6
9 9 9 9 9 9 11 11 11 11 11 11 11 11 11 10 11 11 10 10 9 9 9 9 9 9 8 8 8 7 7 7 6 6 6 6 5 5 5 6 6 6 5
8 9 9 9 9 9 10 10 11 11 11 10 10 10 10 10 10 10 10 9 9 9 9 9 9 8 8 7 7 7 7 6 5 5 5 5 5 5 5 5 5 5 4
8 8 9 10 9 9 9 11 11 11 11 10 10 9 9 9 9 10 9 9 9 9 8 8 7 7 7 6 6 6 6 5 5 5 4 4 4 4 4 4 4 4 4
8 8 9 10 9 9 9 10 11 10 10 10 10 9 9 8 8 9 8 8 8 8 8 7 6 6 6 6 5 5 5 4 4 4 4 4 4 4 3 3 3 3 3
9 9 9 9 9 9 9 11 11 10 10 10 9 9 8 8 8 7 7 7 7 7 7 6 6 5 5 5 5 5 5 4 4 4 4 3 3 3 3 3 3 2 2
9 9 9 9 9 9 9 10 11 11 10 9 9 7 7 7 7 7 7 7 6 6 5 5 5 5 4 4 4 4 4 4 4 3 4 3 3 3 2 2 2 1 0
9 9 9 9 9 9 9 10 10 10 10 9 8 7 7 7 6 6 6 6 6 5 4 4 4 4 4 3 3 4 4 3 3 3 3 3 2 2 1 1 1 0 0
8 8 9 9 9 8 9 9 10 9 9 9 8 7 7 6 6 5 5 5 5 4 3 3 4 4 4 3 3 4 3 2 2 2 2 2 1 1 1 0 0 0 1
8 8 8 8 8 8 9 9 9 8 8 8 8 8 7 7 6 5 5 5 4 4 3 3 4 4 3 3 3 3 2 2 2 1 1 1 1 1 0 1 1 1 1
7 7 6 7 7 8 8 8 9 8 6 8 8 8 7 7 6 5 5 4 4 3 3 4 4 3 3 3 3 3 2 2 2 1 1 0 1 1 2 1 2 2 2
6 6 5 5 6 6 7 7 7 7 7 7 8 7 6 6 5 5 4 4 4 4 4 4 4 4 3 2 2 2 1 1 1 0 0 1 1 2 2 3 2 3 3
6 5 5 4 4 5 7 6 6 7 7 8 7 7 6 5 5 4 4 4 3 3 2 2 2 2 2 1 1 1 0 0 1 1 1 1 2 3 3 3 4 4 4
5 4 3 3 4 4 5 6 6 7 7 7 7 6 6 5 5 4 4 3 3 2 2 1 1 1 1 1 0 1 1 1 1 2 2 2 3 4 4 5 5 6 6
5 4 3 3 3 4 4 5 6 6 6 6 5 5 5 4 5 4 4 3 3 2 1 1 0 0 0 1 1 2 2 2 3 3 3 3 3 4 4 5 6 6 6
4 4 3 3 3 3 4 4 4 5 5 5 5 5 5 4 4 3 2 2 2 2 1 0 1 1 1 2 2 3 3 3 4 4 4 4 4 4 5 5 6 7 7
3 3 3 3 3 4 4 4 4 4 5 5 5 4 4 3 3 2 2 2 2 1 0 1 2 2 2 3 3 3 4 4 4 4 4 4 4 5 5 6 6 7 7
2 2 2 2 2 3 3 3 3 3 4 5 4 4 3 3 2 1 2 1 0 1 1 2 3 3 4 4 4 4 4 4 4 4 5 5 5 5 6 6 6 7 7
2 1 1 1 2 2 2 3 3 3 3 4 4 4 4 3 2 1 1 1 2 3 3 3 4 4 4 4 5 5 5 5 5 5 5 6 6 6 6 6 7 7 7
1 1 0 1 1 2 2 2 3 3 3 4 4 4 4 3 2 1 2 2 3 4 4 4 4 4 5 5 6 5 5 5 5 6 6 7 6 7 7 7 7 7 8
2 2 2 2 2 2 2 3 3 4 4 4 3 4 4 3 3 2 2 3 4 4 4 5 5 5 6 6 6 7 6 7 7 7 7 7 7 7 7 7 8 8 8
4 4 4 3 4 4 4 4 4 4 5 5 5 4 4 4 4 4 4 5 5 5 6 6 6 7 7 7 7 7 7 8 8 9 9 8 8 8 8 8 9 9 9
6 6 6 5 5 5 6 6 6 6 6 7 6 6 5 6 6 5 5 6 6 7 7 8 7 8 8 8 8 8 8 9 9 9 9 9 9 9 9 10 11 10 10
8 8 8 7 7 7 7 7 7 7 8 8 7 7 7 7 7 7 7 7 7 8 8 8 8 9 9 9 9 9 9 10 10 10 10 10 10 10 11 12 12 13 13
10 10 10 9 9 9 9 8 9 9 9 9 9 9 9 9 9 9 9 9 9 9 9 9 10 10 10 10 10 10 10 10 11 11 12 12 12 12 13 14 14 15 15
Wind_Direction
110 116 122 123 123 125 123 118 115 116 116 115 115 115 116 114 114 114 116 115 114 117 118 120 118 116 118 116 114 116 115 110 108 110 109 110 111 110 106 101 98 109 109
116 119 124 128 129 129 126 123 121 120 118 117 116 117 116 116 117 115 114 115 115 117 119 118 116 117 118 115 112 114 117 113 108 110 106 105 108 107 103 95 98 104 108
124 124 127 131 131 129 129 130 128 126 122 121 119 121 120 122 121 117 118 118 118 119 117 119 120 119 118 115 113 112 115 111 108 111 106 103 106 104 106 105 102 104 106
132 132 134 136 133 129 132 135 133 133 130 127 125 124 123 124 122 120 120 120 119 119 118 119 121 121 119 117 117 115 114 116 120 115 106 109 115 109 109 109 104 99 106
130 133 138 139 138 136 140 141 138 135 134 132 131 128 127 127 124 121 121 122 121 119 119 121 122 123 124 123 121 119 119 122 122 118 117 123 127 121 114 108 103 101 105
129 129 135 138 143 144 144 145 138 139 138 135 135 133 131 129 126 123 125 128 128 125 125 124 125 126 127 124 125 128 124 124 122 123 125 133 134 128 122 114 110 109 105
127 130 132 138 145 150 146 145 142 140 138 137 135 133 131 132 132 128 130 130 128 128 127 128 128 129 126 125 124 129 122 119 123 123 121 126 127 131 127 122 115 116 109
129 129 132 139 145 151 148 148 147 143 142 141 138 136 135 138 139 134 134 128 126 126 129 128 126 121 119 119 127 129 124 117 116 115 125 127 127 132 127 125 124 115 127
133 131 134 139 145 150 152 150 150 147 148 148 147 145 140 145 144 140 141 134 130 127 130 131 131 125 123 123 130 131 131 124 121 123 131 133 138 144 133 117 125 138 174
133 134 138 140 145 150 154 152 152 154 155 152 148 148 145 146 142 145 144 136 130 126 132 135 141 139 129 126 121 124 127 129 126 129 131 145 159 170 200 184 160 270 262
125 129 130 140 142 150 156 157 156 156 157 154 148 143 142 143 142 138 134 136 134 128 125 131 134 141 143 138 131 120 124 134 127 130 131 154 193 211 207 231 261 287 280
126 124 129 131 143 153 160 163 163 159 151 152 146 141 139 140 139 135 132 125 120 111 105 109 119 128 135 135 133 123 113 126 129 108 105 234 244 246 247 260 271 291 277
121 130 132 133 145 154 160 159 159 157 154 156 152 148 145 142 139 132 128 123 119 107 102 104 100 102 109 110 117 112 89 61 122 131 260 287 275 269 262 263 275 303 308
109 123 130 137 149 160 170 170 163 157 157 158 157 154 149 143 142 135 132 131 130 117 106 101 99 109 110 108 100 91 103 346 288 262 253 256 260 268 271 276 285 292 299
99 110 123 129 149 161 168 173 165 163 163 167 168 164 158 147 147 138 136 134 129 122 106 98 106 117 122 146 274 296 317 328 292 281 270 265 268 270 270 275 282 289 292
78 81 100 122 144 160 176 182 178 170 168 170 171 176 169 155 145 138 128 125 121 118 98 77 99 251 225 235 256 266 287 284 285 279 273 268 271 268 268 273 277 283 289
68 71 95 100 129 149 165 173 176 178 177 177 177 172 170 162 153 151 133 119 115 109 84 18 290 275 272 276 274 274 284 292 285 284 275 271 270 270 270 274 277 282 287
60 75 92 94 109 124 142 150 155 165 171 171 166 168 172 176 174 159 160 140 135 134 326 315 303 289 290 291 287 292 294 298 295 287 287 281 278 279 278 283 286 284 288
54 71 98 112 114 128 146 159 159 166 171 178 178 179 180 177 184 176 155 147 185 293 306 306 303 293 295 296 294 297 296 295 297 290 289 288 283 284 286 289 293 288 289
30 47 114 131 144 157 157 163 176 178 182 187 189 184 177 178 189 190 177 238 299 308 304 301 303 301 297 296 293 290 291 295 294 290 286 284 281 284 289 289 288 289 292
6 9 197 173 177 191 195 186 182 183 189 190 194 189 188 190 196 208 244 282 300 307 308 304 302 298 296 300 299 290 290 292 298 296 291 287 280 282 287 291 292 293 295
289 287 283 265 247 233 230 225 215 208 205 209 206 201 205 208 217 240 272 290 302 306 308 309 304 302 299 298 295 289 285 285 293 300 297 292 288 288 289 291 292 292 292
284 282 282 273 261 259 255 249 244 230 222 220 216 219 229 237 248 265 276 282 289 300 307 307 303 300 298 298 297 291 287 287 290 294 295 289 288 289 288 289 290 286 285
281 282 277 271 266 262 261 256 252 243 231 228 227 233 243 251 259 269 277 282 285 293 299 301 300 301 301 300 293 289 288 290 290 289 290 291 289 291 290 287 285 282 283
277 277 273 268 265 263 264 261 257 247 240 237 237 243 249 254 261 271 280 286 290 293 296 297 296 305 305 302 295 290 290 293 293 294 292 293 292 291 290 288 283 282 283
274 273 272 269 266 264 265 265 260 254 249 246 246 251 253 255 261 269 276 282 288 291 292 294 296 298 298 298 295 292 292 293 295 297 296 292 291 292 292 290 284 284 283